Location: Ay?beleni
(36.6500°N, 30.3000°E)
Time: 03:51:09
(UTC+00:00)

CZ-4 R/B - Pass Details

Date: 16 October 2021
Orbit: 530 x 596 km, 97.8° (Epoch: 08 December)

Event Time Altitude Azimuth Distance (km) Brightness Sun altitude
Exits shadow 18:01:12 - 215° (SW) 2,605 5.0 -32.7°
Reaches altitude 10° 18:04:20 10° 246° (WSW) 1,819 4.5 -33.3°
Maximum altitude 18:05:49 12° 268° (W) 1,714 4.5 -33.6°
Drops below altitude 10° 18:07:18 10° 290° (WNW) 1,838 4.8 -33.9°
Sets 18:10:49 0° 323° (NW) 2,758 5.6 -34.6°
